Concordia, KS

4:42 AM CST on December 06, 2019 (GMT -0600)
Blosser Municipal

Weather History for KCNK - October, 2019

Change the Weather History Date:

Tuesday, October 29, 2019

  Actual Average Record
Temperature  
Mean Temperature 30 °F 50 °F  
Max Temperature 37 °F 62 °F 87 °F (1937)
Min Temperature 23 °F 39 °F 15 °F (1913)
Degree Days  
Heating Degree Days 35 15  
Month to date heating degree days 350 288  
Since 1 July heating degree days 353 361  
Cooling Degree Days 0 0  
Month to date cooling degree days 9 20  
Year to date cooling degree days 1657 1346  
Moisture  
Dew Point 25 °F    
Average Humidity 81    
Maximum Humidity 92    
Minimum Humidity 69    
Precipitation  
Precipitation 0.00 in 0.05 in 1.15 in (1896)
Month to date precipitation 1.22 1.83  
Year to date precipitation 32.24 25.84  
Snow  
Snow 0.00 in 0.10 in T in (1993)
Month to date snowfall T 0.2  
Year to date snowfall 32.3 13.9  
Since 1 July snowfall T 0.2  
Snow Depth 0.00 in    
Sea Level Pressure  
Sea Level Pressure 30.27 in    
Wind  
Wind Speed 6 mph (NNE)    
Max Wind Speed 16 mph    
Max Gust Speed 22 mph    
Visibility 6 miles    
Events Fog    
T = Trace of Precipitation, MM = Missing Value Source: NWS Daily Summary

Daily Weather History Graph

Daily Weather History Graph

Search for Another Location

Airport or City:

Astronomy

Oct. 29, 2019 Rise Set
Actual Time 7:55 AM CDT 6:32 PM CDT
Civil Twilight 7:27 AM CDT 7:00 PM CDT
Nautical Twilight 6:55 AM CDT 7:32 PM CDT
Astronomical Twilight 6:24 AM CDT 8:03 PM CDT
Moon 9:30 AM CDT (10/29) 7:58 PM CDT (10/29)
Length of Visible Light 11h 32m
Length of Day
10h 37m
Waxing Crescent, 3% of the Moon is Illuminated
Oct 29
Waxing Crescent
Nov 4
First Quarter
Nov 12
Full
Nov 19
Last Quarter
Nov 26
New

Hourly Weather History & Observations

Time (CDT) Temp. Windchill Dew Point Humidity Pressure Visibility Wind Dir Wind Speed Gust Speed Precip Events Conditions
12:55 AM 25.0 °F 20.7 °F 21.9 °F 88% 30.23 in 3.0 mi West 3.5 mph - N/A   Mostly Cloudy
1:02 AM 25.0 °F 19.3 °F 23.0 °F 92% 30.19 in 2.0 mi West 4.6 mph - N/A   Mostly Cloudy
1:05 AM 26.1 °F 20.5 °F 23.0 °F 88% 30.19 in 1.2 mi West 4.6 mph - N/A   Mostly Cloudy
1:13 AM 26.1 °F - 24.1 °F 92% 30.19 in 0.2 mi Calm Calm - N/A Fog Light Freezing Fog
1:55 AM 24.1 °F 19.7 °F 21.0 °F 88% 30.25 in 0.2 mi West 3.5 mph - N/A Fog Light Freezing Fog
2:19 AM 24.1 °F 19.7 °F 21.0 °F 88% 30.20 in 1.5 mi West 3.5 mph - N/A   Mostly Cloudy
2:26 AM 24.1 °F - 19.9 °F 84% 30.20 in 9.0 mi Calm Calm - N/A   Scattered Clouds
2:55 AM 23.0 °F 18.4 °F 19.9 °F 88% 30.26 in 10.0 mi WSW 3.5 mph - N/A   Mostly Cloudy
3:06 AM 24.1 °F 19.7 °F 21.0 °F 88% 30.21 in 1.8 mi West 3.5 mph - N/A   Overcast
3:08 AM 24.1 °F 19.7 °F 21.0 °F 88% 30.21 in 1.2 mi West 3.5 mph - N/A   Overcast
3:16 AM 24.8 °F 20.5 °F 21.2 °F 86% 30.20 in 0.5 mi WNW 3.5 mph - N/A Fog Light Freezing Fog
3:55 AM 24.1 °F 17.0 °F 21.9 °F 91% 30.23 in 0.2 mi NW 5.8 mph - N/A Fog Light Freezing Fog
4:55 AM 24.1 °F 19.7 °F 21.0 °F 88% 30.24 in 0.2 mi West 3.5 mph - N/A Fog Light Freezing Fog
6:55 AM 23.0 °F 17.0 °F 19.9 °F 88% 30.28 in 0.5 mi NW 4.6 mph - N/A Fog Light Freezing Fog
7:55 AM 23.0 °F - 19.9 °F 88% 30.28 in 0.2 mi Calm Calm - N/A Fog Light Freezing Fog
8:55 AM 25.0 °F - 21.9 °F 88% 30.31 in 0.2 mi Calm Calm - N/A Fog Light Freezing Fog
9:55 AM 27.0 °F 23.0 °F 24.1 °F 89% 30.32 in 0.5 mi South 3.5 mph - N/A Fog Light Freezing Fog
10:08 AM 28.0 °F - 26.1 °F 92% 30.27 in 1.5 mi Calm Calm - N/A   Overcast
10:10 AM 28.0 °F 24.2 °F 26.1 °F 92% 30.27 in 2.0 mi ESE 3.5 mph - N/A   Overcast
10:19 AM 28.9 °F - 26.1 °F 89% 30.27 in 3.0 mi North - - N/A   Overcast
10:25 AM 30.0 °F - 27.0 °F 88% 30.27 in 1.8 mi North - - N/A   Overcast
10:33 AM 30.0 °F - 28.0 °F 92% 30.26 in 0.8 mi North - - N/A   Overcast
10:48 AM 30.9 °F 27.5 °F 28.0 °F 89% 30.26 in 3.0 mi Variable 3.5 mph - N/A   Overcast
10:55 AM 32.0 °F 27.5 °F 28.9 °F 88% 30.30 in 4.0 mi Variable 4.6 mph - N/A   Mostly Cloudy
11:16 AM 33.1 °F 28.7 °F 30.0 °F 89% 30.27 in 10.0 mi ESE 4.6 mph - N/A   Mostly Cloudy
11:31 AM 33.1 °F 27.7 °F 28.9 °F 85% 30.26 in 10.0 mi East 5.8 mph - N/A   Overcast
11:55 AM 33.1 °F 27.7 °F 28.9 °F 85% 30.31 in 10.0 mi ENE 5.8 mph - N/A   Overcast
12:49 PM 32.0 °F 26.4 °F 28.4 °F 87% 30.26 in 10.0 mi East 5.8 mph - N/A   Overcast
12:50 PM 32.0 °F 26.4 °F 28.0 °F 85% 30.31 in 10.0 mi East 5.8 mph - N/A   Overcast
1:45 PM 33.1 °F 27.7 °F 28.0 °F 82% 30.26 in 10.0 mi SE 5.8 mph - N/A   Overcast
1:55 PM 33.1 °F 30.0 °F 28.0 °F 82% 30.30 in 10.0 mi SE 3.5 mph - N/A   Overcast
2:31 PM 34.0 °F 31.0 °F 28.0 °F 79% 30.25 in 10.0 mi Variable 3.5 mph - N/A   Overcast
2:38 PM 34.0 °F - 27.0 °F 75% 30.25 in 10.0 mi Calm Calm - N/A   Overcast
2:55 PM 35.1 °F - 27.0 °F 72% 30.30 in 10.0 mi North - - N/A   Overcast
3:11 PM 35.1 °F - 27.0 °F 72% 30.25 in 10.0 mi North - - N/A   Overcast
3:38 PM 35.1 °F 31.0 °F 28.0 °F 76% 30.24 in 10.0 mi North 4.6 mph - N/A   Overcast
3:55 PM 36.0 °F 30.3 °F 28.0 °F 73% 30.29 in 10.0 mi NNE 6.9 mph - N/A   Overcast
4:53 PM 37.4 °F 32.8 °F 28.4 °F 70% 30.25 in 10.0 mi NE 5.8 mph - N/A   Overcast
4:55 PM 37.0 °F 32.4 °F 28.0 °F 70% 30.30 in 10.0 mi NE 5.8 mph - N/A   Overcast
5:28 PM 37.0 °F 29.8 °F 27.0 °F 67% 30.25 in 10.0 mi NE 10.4 mph - N/A   Overcast
5:55 PM 36.0 °F 29.0 °F 27.0 °F 70% 30.30 in 10.0 mi NNE 9.2 mph - N/A   Overcast
6:55 PM 35.1 °F 27.9 °F 27.0 °F 72% 30.31 in 10.0 mi NE 9.2 mph - N/A   Overcast
7:55 PM 34.0 °F 26.0 °F 25.0 °F 70% 30.31 in 10.0 mi NE 10.4 mph - N/A   Overcast
8:55 PM 34.0 °F 26.0 °F 26.1 °F 73% 30.32 in 10.0 mi NNE 10.4 mph - N/A   Overcast
9:55 PM 34.0 °F 27.2 °F 27.0 °F 75% 30.35 in 10.0 mi North 8.1 mph - N/A   Overcast
10:55 PM 34.0 °F 26.6 °F 28.0 °F 79% 30.34 in 10.0 mi NNE 9.2 mph - N/A   Overcast
11:55 PM 34.0 °F 25.0 °F 26.1 °F 73% 30.35 in 10.0 mi NNE 12.7 mph - N/A   Overcast